Augusta, GA

6:46 PM EST on December 04, 2016 (GMT -0500)
Augusta Regional At Bush

Weather History for KAGS - May, 2013

Change the Weather History Date:

Thursday, May 23, 2013

  Actual Average Record
Temperature  
Mean Temperature 77 °F 73 °F  
Max Temperature 87 °F 87 °F 99 °F (1941)
Min Temperature 66 °F 60 °F 41 °F (2002)
Degree Days  
Heating Degree Days 0 0  
Month to date heating degree days 34 18  
Since 1 July heating degree days 2385 2470  
Cooling Degree Days 12 9  
Month to date cooling degree days 102 133  
Year to date cooling degree days 165 206  
Growing Degree Days 26 (Base 50)    
Moisture  
Dew Point 64 °F    
Average Humidity 65    
Maximum Humidity 93    
Minimum Humidity 37    
Precipitation  
Precipitation 0.04 in 0.09 in 2.27 in (1915)
Month to date precipitation 2.26 1.77  
Year to date precipitation 19.60 16.62  
Sea Level Pressure  
Sea Level Pressure 29.93 in    
Wind  
Wind Speed 6 mph (WSW)    
Max Wind Speed 18 mph    
Max Gust Speed 24 mph    
Visibility 10 miles    
Events Rain    
T = Trace of Precipitation, MM = Missing Value Source: NWS Daily Summary

Daily Weather History Graph

Daily Weather History Graph

Search for Another Location

Airport or City:

Trip Planner

Search our weather history database for the weather conditions in past years. The results will help you decide how hot, cold, wet, or windy it might be!

Date:

Astronomy

May. 23, 2013 Rise Set
Actual Time 6:22 AM EDT 8:26 PM EDT
Civil Twilight 5:54 AM EDT 8:54 PM EDT
Nautical Twilight 5:20 AM EDT 9:28 PM EDT
Astronomical Twilight 4:44 AM EDT 10:05 PM EDT
Moon 7:01 PM EDT (5/23) 5:01 AM EDT (5/23)
Length of Visible Light 15h 00m
Length of Day
14h 04m
Waxing Gibbous, 97% of the Moon is Illuminated
May 23
Waxing Gibbous
May 25
Full
May 31
Last Quarter
Jun 8
New
Jun 16
First Quarter

Hourly Weather History & Observations

Time (EDT) Temp. Heat Index Dew Point Humidity Pressure Visibility Wind Dir Wind Speed Gust Speed Precip Events Conditions
12:53 AM 68.0 °F - 66.0 °F 93% 29.95 in 9.0 mi Calm Calm - N/A   Clear
1:53 AM 66.0 °F - 64.9 °F 96% 29.95 in 7.0 mi Calm Calm - N/A   Scattered Clouds
2:53 AM 69.1 °F - 66.9 °F 93% 29.94 in 10.0 mi SSW 6.9 mph - N/A   Mostly Cloudy
3:29 AM 69.8 °F - 66.2 °F 88% 29.94 in 10.0 mi Calm Calm - N/A   Overcast
3:53 AM 69.1 °F - 66.9 °F 93% 29.94 in 10.0 mi Calm Calm - N/A   Mostly Cloudy
4:53 AM 68.0 °F - 66.0 °F 93% 29.94 in 3.0 mi Calm Calm - 0.01 in Rain Heavy Rain
5:53 AM 66.9 °F - 66.0 °F 97% 29.94 in 9.0 mi Calm Calm - 0.03 in Rain Light Rain
6:53 AM 66.9 °F - 64.9 °F 93% 29.95 in 10.0 mi WSW 6.9 mph - 0.00 in   Clear
7:53 AM 68.0 °F - 64.9 °F 90% 29.96 in 10.0 mi WSW 5.8 mph - N/A   Overcast
8:53 AM 71.1 °F - 66.9 °F 87% 29.96 in 10.0 mi West 3.5 mph - N/A   Partly Cloudy
9:53 AM 73.9 °F - 66.9 °F 79% 29.96 in 10.0 mi WSW 5.8 mph - N/A   Mostly Cloudy
10:53 AM 75.9 °F - 66.0 °F 71% 29.96 in 10.0 mi WNW 5.8 mph - N/A   Mostly Cloudy
11:53 AM 75.9 °F - 66.9 °F 74% 29.96 in 10.0 mi WSW 4.6 mph - N/A   Overcast
12:53 PM 77.0 °F - 66.9 °F 71% 29.95 in 10.0 mi West 9.2 mph - N/A   Overcast
1:53 PM 80.1 °F 82.3 °F 66.9 °F 64% 29.94 in 10.0 mi West 6.9 mph - N/A   Overcast
2:00 PM 80.6 °F 82.7 °F 66.2 °F 61% 29.94 in 10.0 mi Calm Calm - N/A   Mostly Cloudy
2:53 PM 82.0 °F 83.4 °F 64.0 °F 54% 29.91 in 10.0 mi Variable 3.5 mph - N/A   Mostly Cloudy
3:53 PM 84.0 °F 86.3 °F 66.0 °F 55% 29.89 in 10.0 mi WSW 10.4 mph - N/A   Mostly Cloudy
4:53 PM 87.1 °F 87.0 °F 61.0 °F 41% 29.88 in 10.0 mi West 12.7 mph 21.9 mph N/A   Scattered Clouds
5:53 PM 86.0 °F 85.0 °F 57.9 °F 38% 29.87 in 10.0 mi West 16.1 mph - N/A   Clear
6:53 PM 84.0 °F 83.8 °F 59.0 °F 43% 29.87 in 10.0 mi West 11.5 mph - N/A   Clear
7:53 PM 81.0 °F 81.6 °F 60.1 °F 49% 29.87 in 10.0 mi WSW 6.9 mph - N/A   Clear
8:53 PM 75.0 °F - 62.1 °F 64% 29.88 in 10.0 mi WSW 5.8 mph - N/A   Clear
9:53 PM 73.9 °F - 62.1 °F 66% 29.89 in 10.0 mi WSW 8.1 mph - N/A   Clear
10:53 PM 73.0 °F - 62.1 °F 68% 29.91 in 10.0 mi WSW 6.9 mph - N/A   Scattered Clouds
11:53 PM 72.0 °F - 61.0 °F 68% 29.92 in 10.0 mi West 8.1 mph - N/A   Clear